Tracking 35331 objects as of 16-Sep-2026
HD Live streaming from Space Station
objects crossing your sky now

OBJECT E


OBJECT E is no longer on orbit


NORAD ID: 57584
Int'l Code: 2023-117E
Launch date: August 10, 2023
Source: People's Republic of China (PRC)
Launch site: Jiuquan Satellite Launch Center, China (JSC)
Decay date: 2025-05-27

Note: This is SATELLITE DEBRIS
Your satellite tracking list
Your tracking list is empty




NASA's NSSDC Master Catalog

Two Line Element Set (TLE):
1 57584U 23117E   25143.25442877  .06518439  25195-5  10714-2 0  9995
2 57584  97.4164 231.9774 0016190 262.0517  97.8942 16.33063457 99763
Source of the keplerian elements: AFSPC